Weather History for Alpena, MI

Change the Weather History Date:

Thursday, October 24, 2013

  Actual Average Record
Temperature  
Mean Temperature 39 °F 43 °F  
Max Temperature 46 °F 53 °F 83 °F (1963)
Min Temperature 32 °F 34 °F 19 °F (1972)
Degree Days  
Heating Degree Days 26 22  
Month to date heating degree days 370 425  
Since 1 July heating degree days 754 782  
Cooling Degree Days 0 0  
Month to date cooling degree days 0 0  
Year to date cooling degree days 343 289  
Moisture  
Dew Point 33 °F    
Average Humidity 83    
Maximum Humidity 100    
Minimum Humidity 65    
Precipitation  
Precipitation 0.04 in 0.08 in 1.82 in (1918)
Month to date precipitation 3.08 2.07  
Year to date precipitation 26.74 23.77  
Snow  
Snow T in 0.10 in 4.40 in (1933)
Month to date snowfall T 0.2  
Since 1 July snowfall T 0.2  
Snow Depth T in    
Sea Level Pressure  
Sea Level Pressure 29.96 in    
Wind  
Wind Speed 7 mph (WNW)    
Max Wind Speed 16 mph    
Max Gust Speed 26 mph    
Visibility 10 miles    
Events Rain    
T = Trace of Precipitation, MM = Missing Value Source: NWS Daily Summary

Daily Weather History Graph

Daily Weather History Graph

Search for Another Location

Airport:

Trip Planner

Search our weather history database for the weather conditions in past years. The results will help you decide how hot, cold, wet, or windy it might be!

Date:

Astronomy

Oct. 24, 2013 Rise Set
Actual Time 8:02 AM EDT 6:33 PM EDT
Civil Twilight 7:32 AM EDT 7:03 PM EDT
Nautical Twilight 6:57 AM EDT 7:38 PM EDT
Astronomical Twilight 6:23 AM EDT 8:12 PM EDT
Moon 10:51 PM EDT (10/24) 1:08 PM EDT (10/24)
Length of Visible Light 11h 31m
Length of Day
10h 31m
Waning Gibbous, 71% of the Moon is Illuminated
Oct 24
Waning Gibbous
Oct 26
Last Quarter
Nov 3
New
Nov 10
First Quarter
Nov 17
Full

Hourly Weather History & Observations

Time (EDT) Temp. Windchill Dew Point Humidity Pressure Visibility Wind Dir Wind Speed Gust Speed Precip Events Conditions
12:54 AM 33.1 °F 27.7 °F 30.9 °F 92% 29.84 in 10.0 mi West 5.8 mph - N/A   Overcast
1:54 AM 33.1 °F 26.9 °F 30.0 °F 89% 29.85 in 10.0 mi WSW 6.9 mph - N/A   Overcast
2:54 AM 33.1 °F 26.9 °F 30.0 °F 89% 29.85 in 10.0 mi WSW 6.9 mph - N/A   Overcast
3:54 AM 32.0 °F 26.4 °F 30.0 °F 92% 29.84 in 10.0 mi WSW 5.8 mph - N/A   Clear
4:54 AM 33.1 °F 28.7 °F 30.0 °F 89% 29.85 in 10.0 mi WSW 4.6 mph - N/A   Clear
5:54 AM 33.1 °F 28.7 °F 30.9 °F 92% 29.86 in 10.0 mi West 4.6 mph - N/A   Mostly Cloudy
6:54 AM 33.1 °F 26.9 °F 30.9 °F 92% 29.88 in 10.0 mi West 6.9 mph - N/A   Overcast
7:54 AM 33.1 °F 26.9 °F 30.9 °F 92% 29.89 in 10.0 mi West 6.9 mph - N/A   Overcast
8:54 AM 34.0 °F 28.8 °F 32.0 °F 92% 29.91 in 10.0 mi West 5.8 mph - N/A   Overcast
9:54 AM 36.0 °F 30.3 °F 33.1 °F 89% 29.92 in 10.0 mi West 6.9 mph - N/A   Overcast
10:44 AM 39.2 °F 35.0 °F 35.6 °F 87% 29.91 in 10.0 mi Variable 5.8 mph - N/A   Overcast
10:54 AM 39.0 °F 33.4 °F 34.0 °F 82% 29.94 in 10.0 mi West 8.1 mph - 0.00 in Rain Light Rain
11:05 AM 39.2 °F 33.0 °F 33.8 °F 81% 29.92 in 10.0 mi WNW 9.2 mph - 0.00 in Rain Light Rain
11:30 AM 39.2 °F 35.0 °F 35.6 °F 87% 29.92 in 6.0 mi NW 5.8 mph - 0.02 in Rain Light Rain
11:54 AM 39.0 °F 33.4 °F 36.0 °F 89% 29.95 in 6.0 mi NW 8.1 mph - 0.04 in Rain Light Rain
12:42 PM 42.8 °F 38.0 °F 37.4 °F 81% 29.94 in 10.0 mi NW 8.1 mph 17.3 mph 0.00 in   Overcast
12:54 PM 41.0 °F 33.5 °F 37.0 °F 86% 29.96 in 10.0 mi NW 13.8 mph 18.4 mph 0.00 in   Overcast
1:43 PM 42.8 °F 36.2 °F 35.6 °F 76% 29.94 in 10.0 mi NNW 12.7 mph 17.3 mph N/A   Mostly Cloudy
1:52 PM 42.8 °F 37.0 °F 35.6 °F 76% 29.94 in 10.0 mi NW 10.4 mph - N/A   Overcast
1:54 PM 43.0 °F 37.2 °F 35.1 °F 74% 29.97 in 10.0 mi NW 10.4 mph - N/A   Mostly Cloudy
2:02 PM 44.6 °F 39.7 °F 35.6 °F 71% 29.94 in 10.0 mi NW 9.2 mph 16.1 mph N/A   Mostly Cloudy
2:19 PM 42.8 °F 39.3 °F 35.6 °F 76% 29.94 in 10.0 mi Variable 5.8 mph 17.3 mph N/A   Mostly Cloudy
2:54 PM 42.1 °F 35.7 °F 34.0 °F 73% 29.97 in 10.0 mi WNW 11.5 mph 26.5 mph 0.00 in Rain Light Rain
3:54 PM 45.0 °F 38.2 °F 36.0 °F 71% 29.99 in 10.0 mi North 15.0 mph 20.7 mph 0.00 in   Mostly Cloudy
4:54 PM 45.0 °F 40.1 °F 33.1 °F 63% 30.00 in 10.0 mi NNW 9.2 mph - 0.00 in   Clear
5:54 PM 43.0 °F 41.3 °F 34.0 °F 71% 30.02 in 10.0 mi Variable 3.5 mph - 0.00 in   Partly Cloudy
6:54 PM 41.0 °F 38.0 °F 35.1 °F 79% 30.05 in 10.0 mi WNW 4.6 mph - 0.00 in Rain Light Rain
7:08 PM 41.0 °F 37.1 °F 35.6 °F 81% 30.03 in 10.0 mi West 5.8 mph - 0.00 in Rain Light Rain
7:20 PM 39.2 °F 35.9 °F 35.6 °F 87% 30.04 in 10.0 mi West 4.6 mph - 0.00 in   Scattered Clouds
7:54 PM 37.9 °F 33.5 °F 35.1 °F 89% 30.07 in 10.0 mi West 5.8 mph - 0.00 in   Partly Cloudy
8:54 PM 36.0 °F 30.3 °F 34.0 °F 93% 30.09 in 10.0 mi West 6.9 mph - N/A   Clear
9:54 PM 35.1 °F 31.0 °F 33.1 °F 92% 30.10 in 10.0 mi West 4.6 mph - N/A   Partly Cloudy
10:54 PM 34.0 °F 29.8 °F 32.0 °F 92% 30.11 in 10.0 mi West 4.6 mph - N/A   Partly Cloudy
11:51 PM 35.6 °F 30.7 °F 33.8 °F 93% 30.09 in 10.0 mi West 5.8 mph - 0.00 in   Mostly Cloudy
11:54 PM 34.0 °F 28.8 °F 33.1 °F 96% 30.12 in 10.0 mi West 5.8 mph - 0.00 in   Overcast